Year,Month,Day,Hour,Minute,Value (Times are PST for temperature in C)
2017,06,20,00,00,13.30
2017,06,20,00,01,13.30
2017,06,20,00,02,13.30
2017,06,20,00,03,13.30
2017,06,20,00,04,13.30
2017,06,20,00,05,13.30
2017,06,20,00,06,13.30
2017,06,20,00,07,13.30
2017,06,20,00,08,13.30
2017,06,20,00,09,13.30
2017,06,20,00,10,13.30
2017,06,20,00,11,13.30
2017,06,20,00,12,13.30
2017,06,20,00,13,13.30
2017,06,20,00,14,13.40
2017,06,20,00,15,13.40
2017,06,20,00,16,13.40
2017,06,20,00,17,13.40
2017,06,20,00,18,13.40
2017,06,20,00,19,13.40
2017,06,20,00,20,13.40
2017,06,20,00,21,13.40
2017,06,20,00,22,13.40
2017,06,20,00,23,13.40
2017,06,20,00,24,13.40
2017,06,20,00,25,13.40
2017,06,20,00,26,13.40
2017,06,20,00,27,13.40
2017,06,20,00,28,13.40
2017,06,20,00,29,13.40
2017,06,20,00,30,13.30
2017,06,20,00,31,13.30
2017,06,20,00,32,13.30
2017,06,20,00,33,13.30
2017,06,20,00,34,13.30
2017,06,20,00,35,13.30
2017,06,20,00,36,13.30
2017,06,20,00,37,13.30
2017,06,20,00,38,13.30
2017,06,20,00,39,13.30
2017,06,20,00,40,13.30
2017,06,20,00,41,13.30
2017,06,20,00,42,13.30
2017,06,20,00,43,13.40
2017,06,20,00,44,13.40
2017,06,20,00,45,13.40
2017,06,20,00,46,13.40
2017,06,20,00,47,13.40
2017,06,20,00,48,13.40
2017,06,20,00,49,13.40
2017,06,20,00,50,13.40
2017,06,20,00,51,13.40
2017,06,20,00,52,13.40
2017,06,20,00,53,13.40
2017,06,20,00,54,13.40
2017,06,20,00,55,13.50
2017,06,20,00,56,13.40
2017,06,20,00,57,13.40
2017,06,20,00,58,13.50
2017,06,20,00,59,13.50
2017,06,20,01,00,13.50
2017,06,20,01,01,13.50
2017,06,20,01,02,13.60
2017,06,20,01,03,13.60
2017,06,20,01,04,13.60
2017,06,20,01,05,13.60
2017,06,20,01,06,13.60
2017,06,20,01,07,13.60
2017,06,20,01,08,13.70
2017,06,20,01,09,13.70
2017,06,20,01,10,13.70
2017,06,20,01,11,13.70
2017,06,20,01,12,13.70
2017,06,20,01,13,13.70
2017,06,20,01,14,13.70
2017,06,20,01,15,13.70
2017,06,20,01,16,13.70
2017,06,20,01,17,13.70
2017,06,20,01,18,13.70
2017,06,20,01,19,13.70
2017,06,20,01,20,13.70
2017,06,20,01,21,13.70
2017,06,20,01,22,13.70
2017,06,20,01,23,13.70
2017,06,20,01,24,13.80
2017,06,20,01,25,13.80
2017,06,20,01,26,13.80
2017,06,20,01,27,13.80
2017,06,20,01,28,13.80
2017,06,20,01,29,13.90
2017,06,20,01,30,13.90
2017,06,20,01,31,13.90
2017,06,20,01,32,13.90
2017,06,20,01,33,14.00
2017,06,20,01,34,14.10
2017,06,20,01,35,14.10
2017,06,20,01,36,14.20
2017,06,20,01,37,14.40
2017,06,20,01,38,14.50
2017,06,20,01,39,14.60
2017,06,20,01,40,14.70
2017,06,20,01,41,14.80
2017,06,20,01,42,14.80
2017,06,20,01,43,14.90
2017,06,20,01,44,14.90
2017,06,20,01,45,15.00
2017,06,20,01,46,15.00
2017,06,20,01,47,15.00
2017,06,20,01,48,15.10
2017,06,20,01,49,15.10
2017,06,20,01,50,15.10
2017,06,20,01,51,15.20
2017,06,20,01,52,15.20
2017,06,20,01,53,15.20
2017,06,20,01,54,15.20
2017,06,20,01,55,15.20
2017,06,20,01,56,15.20
2017,06,20,01,57,15.30
2017,06,20,01,58,15.30
2017,06,20,01,59,15.40
2017,06,20,02,00,15.40
2017,06,20,02,01,15.40
2017,06,20,02,02,15.50
2017,06,20,02,03,15.50
2017,06,20,02,04,15.60
2017,06,20,02,05,15.60
2017,06,20,02,06,15.70
2017,06,20,02,07,15.70
2017,06,20,02,08,15.70
2017,06,20,02,09,15.70
2017,06,20,02,10,15.70
2017,06,20,02,11,15.70
2017,06,20,02,12,15.70
2017,06,20,02,13,15.70
2017,06,20,02,14,15.70
2017,06,20,02,15,15.70
2017,06,20,02,16,15.70
2017,06,20,02,17,15.70
2017,06,20,02,18,15.70
2017,06,20,02,19,15.60
2017,06,20,02,20,15.60
2017,06,20,02,21,15.50
2017,06,20,02,22,15.50
2017,06,20,02,23,15.40
2017,06,20,02,24,15.40
2017,06,20,02,25,15.30
2017,06,20,02,26,15.20
2017,06,20,02,27,15.20
2017,06,20,02,28,15.10
2017,06,20,02,29,15.00
2017,06,20,02,30,15.00
2017,06,20,02,31,15.00
2017,06,20,02,32,14.90
2017,06,20,02,33,14.90
2017,06,20,02,34,14.90
2017,06,20,02,35,14.80
2017,06,20,02,36,14.80
2017,06,20,02,37,14.80
2017,06,20,02,38,14.70
2017,06,20,02,39,14.60
2017,06,20,02,40,14.50
2017,06,20,02,41,14.50
2017,06,20,02,42,14.40
2017,06,20,02,43,14.30
2017,06,20,02,44,14.30
2017,06,20,02,45,14.20
2017,06,20,02,46,14.10
2017,06,20,02,47,14.00
2017,06,20,02,48,14.00
2017,06,20,02,49,13.90
2017,06,20,02,50,13.90
2017,06,20,02,51,13.80
2017,06,20,02,52,13.80
2017,06,20,02,53,13.80
2017,06,20,02,54,13.80
2017,06,20,02,55,13.70
2017,06,20,02,56,13.70
2017,06,20,02,57,13.70
2017,06,20,02,58,13.60
2017,06,20,02,59,13.60
2017,06,20,03,00,13.60
2017,06,20,03,01,13.50
2017,06,20,03,02,13.50
2017,06,20,03,03,13.50
2017,06,20,03,04,13.50
2017,06,20,03,05,13.40
2017,06,20,03,06,13.40
2017,06,20,03,07,13.40
2017,06,20,03,08,13.40
2017,06,20,03,09,13.40
2017,06,20,03,10,13.40
2017,06,20,03,11,13.40
2017,06,20,03,12,13.40
2017,06,20,03,13,13.40
2017,06,20,03,14,13.40
2017,06,20,03,15,13.40
2017,06,20,03,16,13.40
2017,06,20,03,17,13.40
2017,06,20,03,18,13.30
2017,06,20,03,19,13.30
2017,06,20,03,20,13.40
2017,06,20,03,21,13.30
2017,06,20,03,22,13.40
2017,06,20,03,23,13.40
2017,06,20,03,24,13.40
2017,06,20,03,25,13.40
2017,06,20,03,26,13.40
2017,06,20,03,27,13.40
2017,06,20,03,28,13.40
2017,06,20,03,29,13.40
2017,06,20,03,30,13.40
2017,06,20,03,31,13.40
2017,06,20,03,32,13.30
2017,06,20,03,33,13.30
2017,06,20,03,34,13.30
2017,06,20,03,35,13.30
2017,06,20,03,36,13.30
2017,06,20,03,37,13.30
2017,06,20,03,38,13.30
2017,06,20,03,39,13.30
2017,06,20,03,40,13.30
2017,06,20,03,41,13.30
2017,06,20,03,42,13.30
2017,06,20,03,43,13.30
2017,06,20,03,44,13.30
2017,06,20,03,45,13.30
2017,06,20,03,46,13.30
2017,06,20,03,47,13.30
2017,06,20,03,48,13.30
2017,06,20,03,49,13.30
2017,06,20,03,50,13.30
2017,06,20,03,51,13.30
2017,06,20,03,52,13.30
2017,06,20,03,53,13.30
2017,06,20,03,54,13.30
2017,06,20,03,55,13.30
2017,06,20,03,56,13.30
2017,06,20,03,57,13.20
2017,06,20,03,58,13.20
2017,06,20,03,59,13.20
2017,06,20,04,00,13.20
2017,06,20,04,01,13.20
2017,06,20,04,02,13.20
2017,06,20,04,03,13.20
2017,06,20,04,04,13.10
2017,06,20,04,05,13.10
2017,06,20,04,06,13.10
2017,06,20,04,07,13.00
2017,06,20,04,08,13.00
2017,06,20,04,09,13.00
2017,06,20,04,10,13.00
2017,06,20,04,11,12.90
2017,06,20,04,12,12.90
2017,06,20,04,13,12.90
2017,06,20,04,14,12.80
2017,06,20,04,15,12.80
2017,06,20,04,16,12.80
2017,06,20,04,17,12.80
2017,06,20,04,18,12.70
2017,06,20,04,19,12.70
2017,06,20,04,20,12.70
2017,06,20,04,21,12.70
2017,06,20,04,22,12.60
2017,06,20,04,23,12.60
2017,06,20,04,24,12.60
2017,06,20,04,25,12.60
2017,06,20,04,26,12.60
2017,06,20,04,27,12.50
2017,06,20,04,28,12.50
2017,06,20,04,29,12.50
2017,06,20,04,30,12.50
2017,06,20,04,31,12.50
2017,06,20,04,32,12.50
2017,06,20,04,33,12.50
2017,06,20,04,34,12.50
2017,06,20,04,35,12.40
2017,06,20,04,36,12.50
2017,06,20,04,37,12.40
2017,06,20,04,38,12.40
2017,06,20,04,39,12.40
2017,06,20,04,40,12.40
2017,06,20,04,41,12.40
2017,06,20,04,42,12.40
2017,06,20,04,43,12.40
2017,06,20,04,44,12.40
2017,06,20,04,45,12.40
2017,06,20,04,46,12.40
2017,06,20,04,47,12.40
2017,06,20,04,48,12.40
2017,06,20,04,49,12.30
2017,06,20,04,50,12.30
2017,06,20,04,51,12.30
2017,06,20,04,52,12.30
2017,06,20,04,53,12.30
2017,06,20,04,54,12.30
2017,06,20,04,55,12.30
2017,06,20,04,56,12.30
2017,06,20,04,57,12.30
2017,06,20,04,58,12.30
2017,06,20,04,59,12.30
2017,06,20,05,00,12.30
2017,06,20,05,01,12.30
2017,06,20,05,02,12.30
2017,06,20,05,03,12.30
2017,06,20,05,04,12.30
2017,06,20,05,05,12.30
2017,06,20,05,06,12.30
2017,06,20,05,07,12.30
2017,06,20,05,08,12.30
2017,06,20,05,09,12.30
2017,06,20,05,10,12.30
2017,06,20,05,11,12.30
2017,06,20,05,12,12.30
2017,06,20,05,13,12.30
2017,06,20,05,14,12.30
2017,06,20,05,15,12.30
2017,06,20,05,16,12.40
2017,06,20,05,17,12.40
2017,06,20,05,18,12.40
2017,06,20,05,19,12.40
2017,06,20,05,20,12.40
2017,06,20,05,21,12.50
2017,06,20,05,22,12.50
2017,06,20,05,23,12.70
2017,06,20,05,24,12.80
2017,06,20,05,25,13.00
2017,06,20,05,26,13.20
2017,06,20,05,27,13.30
2017,06,20,05,28,13.50
2017,06,20,05,29,13.60
2017,06,20,05,30,13.70
2017,06,20,05,31,13.80
2017,06,20,05,32,13.80
2017,06,20,05,33,13.80
2017,06,20,05,34,13.90
2017,06,20,05,35,13.90
2017,06,20,05,36,13.90
2017,06,20,05,37,13.90
2017,06,20,05,38,14.00
2017,06,20,05,39,14.10
2017,06,20,05,40,14.10
2017,06,20,05,41,14.20
2017,06,20,05,42,14.30
2017,06,20,05,43,14.30
2017,06,20,05,44,14.30
2017,06,20,05,45,14.30
2017,06,20,05,46,14.30
2017,06,20,05,47,14.30
2017,06,20,05,48,14.30
2017,06,20,05,49,14.30
2017,06,20,05,50,14.30
2017,06,20,05,51,14.30
2017,06,20,05,52,14.30
2017,06,20,05,53,14.20
2017,06,20,05,54,14.00
2017,06,20,05,55,13.90
2017,06,20,05,56,13.80
2017,06,20,05,57,13.60
2017,06,20,05,58,13.50
2017,06,20,05,59,13.40
2017,06,20,06,00,13.30
2017,06,20,06,01,13.20
2017,06,20,06,02,13.10
2017,06,20,06,03,13.10
2017,06,20,06,04,13.00
2017,06,20,06,05,13.00
2017,06,20,06,06,13.10
2017,06,20,06,07,13.10
2017,06,20,06,08,13.30
2017,06,20,06,09,13.40
2017,06,20,06,10,13.50
2017,06,20,06,11,13.60
2017,06,20,06,12,13.70
2017,06,20,06,13,13.80
2017,06,20,06,14,13.90
2017,06,20,06,15,14.10
2017,06,20,06,16,14.20
2017,06,20,06,17,14.20
2017,06,20,06,18,14.30
2017,06,20,06,19,14.40
2017,06,20,06,20,14.50
2017,06,20,06,21,14.60
2017,06,20,06,22,14.60
2017,06,20,06,23,14.60
2017,06,20,06,24,14.60
2017,06,20,06,25,14.60
2017,06,20,06,26,14.60
2017,06,20,06,27,14.60
2017,06,20,06,28,14.60
2017,06,20,06,29,14.60
2017,06,20,06,30,14.70
2017,06,20,06,31,14.70
2017,06,20,06,32,14.70
2017,06,20,06,33,14.70
2017,06,20,06,34,14.70
2017,06,20,06,35,14.80
2017,06,20,06,36,14.80
2017,06,20,06,37,14.80
2017,06,20,06,38,14.80
2017,06,20,06,39,14.90
2017,06,20,06,40,14.90
2017,06,20,06,41,14.90
2017,06,20,06,42,15.00
2017,06,20,06,43,15.00
2017,06,20,06,44,15.00
2017,06,20,06,45,14.90
2017,06,20,06,46,14.90
2017,06,20,06,47,14.90
2017,06,20,06,48,14.80
2017,06,20,06,49,14.80
2017,06,20,06,50,14.70
2017,06,20,06,51,14.70
2017,06,20,06,52,14.60
2017,06,20,06,53,14.50
2017,06,20,06,54,14.50
2017,06,20,06,55,14.40
2017,06,20,06,56,14.40
2017,06,20,06,57,14.30
2017,06,20,06,58,14.30
2017,06,20,06,59,14.30
2017,06,20,07,00,14.30
2017,06,20,07,01,14.20
2017,06,20,07,02,14.20
2017,06,20,07,03,14.20
2017,06,20,07,04,14.30
2017,06,20,07,05,14.30
2017,06,20,07,06,14.30
2017,06,20,07,07,14.30
2017,06,20,07,08,14.30
2017,06,20,07,09,14.40
2017,06,20,07,10,14.40
2017,06,20,07,11,14.40
2017,06,20,07,12,14.40
2017,06,20,07,13,14.40
2017,06,20,07,14,14.50
2017,06,20,07,15,14.50
2017,06,20,07,16,14.50
2017,06,20,07,17,14.60
2017,06,20,07,18,14.60
2017,06,20,07,19,14.60
2017,06,20,07,20,14.60
2017,06,20,07,21,14.70
2017,06,20,07,22,14.70
2017,06,20,07,23,14.70
2017,06,20,07,24,14.80
2017,06,20,07,25,14.80
2017,06,20,07,26,14.80
2017,06,20,07,27,14.80
2017,06,20,07,28,14.80
2017,06,20,07,29,14.80
2017,06,20,07,30,14.80
2017,06,20,07,31,14.80
2017,06,20,07,32,14.80
2017,06,20,07,33,14.80
2017,06,20,07,34,14.80
2017,06,20,07,35,14.70
2017,06,20,07,36,14.70
2017,06,20,07,37,14.70
2017,06,20,07,38,14.70
2017,06,20,07,39,14.60
2017,06,20,07,40,14.70
2017,06,20,07,41,14.70
2017,06,20,07,42,14.70
2017,06,20,07,43,14.70
2017,06,20,07,44,14.70
2017,06,20,07,45,14.70
2017,06,20,07,46,14.70
2017,06,20,07,47,14.70
2017,06,20,07,48,14.70
2017,06,20,07,49,14.70
2017,06,20,07,50,14.70
2017,06,20,07,51,14.70
2017,06,20,07,52,14.80
2017,06,20,07,53,14.80
2017,06,20,07,54,14.80
2017,06,20,07,55,14.80
2017,06,20,07,56,14.80
2017,06,20,07,57,14.80
2017,06,20,07,58,14.90
2017,06,20,07,59,14.90
2017,06,20,08,00,14.90
2017,06,20,08,01,14.90
2017,06,20,08,02,14.80
2017,06,20,08,03,14.80
2017,06,20,08,04,14.80
2017,06,20,08,05,14.70
2017,06,20,08,06,14.60
2017,06,20,08,07,14.50
2017,06,20,08,08,14.40
2017,06,20,08,09,14.30
2017,06,20,08,10,14.20
2017,06,20,08,11,14.20
2017,06,20,08,12,14.10
2017,06,20,08,13,14.10
2017,06,20,08,14,14.10
2017,06,20,08,15,14.10
2017,06,20,08,16,14.10
2017,06,20,08,17,14.10
2017,06,20,08,18,14.20
2017,06,20,08,19,14.30
2017,06,20,08,20,14.30
2017,06,20,08,21,14.30
2017,06,20,08,22,14.30
2017,06,20,08,23,14.30
2017,06,20,08,24,14.30
2017,06,20,08,25,14.30
2017,06,20,08,26,14.20
2017,06,20,08,27,14.20
2017,06,20,08,28,14.20
2017,06,20,08,29,14.20
2017,06,20,08,30,14.20
2017,06,20,08,31,14.20
2017,06,20,08,32,14.20
2017,06,20,08,33,14.20
2017,06,20,08,34,14.20
2017,06,20,08,35,14.20
2017,06,20,08,36,14.20
2017,06,20,08,37,14.10
2017,06,20,08,38,14.10
2017,06,20,08,39,14.20
2017,06,20,08,40,14.20
2017,06,20,08,41,14.20
2017,06,20,08,42,14.30
2017,06,20,08,43,14.40
2017,06,20,08,44,14.40
2017,06,20,08,45,14.50
2017,06,20,08,46,14.60
2017,06,20,08,47,14.70
2017,06,20,08,48,14.70
2017,06,20,08,49,14.80
2017,06,20,08,50,14.90
2017,06,20,08,51,15.00
2017,06,20,08,52,15.10
2017,06,20,08,53,15.10
2017,06,20,08,54,15.20
2017,06,20,08,55,15.30
2017,06,20,08,56,15.40
2017,06,20,08,57,15.50
2017,06,20,08,58,15.60
2017,06,20,08,59,15.80
2017,06,20,09,00,15.90
2017,06,20,09,01,16.00
2017,06,20,09,02,16.10
2017,06,20,09,03,16.20
2017,06,20,09,04,16.30
2017,06,20,09,05,16.30
2017,06,20,09,06,16.40
2017,06,20,09,07,16.40
2017,06,20,09,08,16.40
2017,06,20,09,09,16.50
2017,06,20,09,10,16.60
2017,06,20,09,11,16.60
2017,06,20,09,12,16.70
2017,06,20,09,13,16.70
2017,06,20,09,14,16.80
2017,06,20,09,15,16.80
2017,06,20,09,16,16.90
2017,06,20,09,17,17.00
2017,06,20,09,18,17.00
2017,06,20,09,19,17.10
2017,06,20,09,20,17.20
2017,06,20,09,21,17.30
2017,06,20,09,22,17.40
2017,06,20,09,23,17.50
2017,06,20,09,24,17.50
2017,06,20,09,25,17.60
2017,06,20,09,26,17.50
2017,06,20,09,27,17.40
2017,06,20,09,28,17.20
2017,06,20,09,29,17.00
2017,06,20,09,30,16.80
2017,06,20,09,31,16.70
2017,06,20,09,32,16.70
2017,06,20,09,33,16.70
2017,06,20,09,34,16.60
2017,06,20,09,35,16.70
2017,06,20,09,36,16.70
2017,06,20,09,37,16.70
2017,06,20,09,38,16.60
2017,06,20,09,39,16.60
2017,06,20,09,40,16.50
2017,06,20,09,41,16.50
2017,06,20,09,42,16.50
2017,06,20,09,43,16.50
2017,06,20,09,44,16.50
2017,06,20,09,45,16.50
2017,06,20,09,46,16.50
2017,06,20,09,47,16.40
2017,06,20,09,48,16.40
2017,06,20,09,49,16.40
2017,06,20,09,50,16.40
2017,06,20,09,51,16.40
2017,06,20,09,52,16.40
2017,06,20,09,53,16.40
2017,06,20,09,54,16.40
2017,06,20,09,55,16.50
2017,06,20,09,56,16.60
2017,06,20,09,57,16.70
2017,06,20,09,58,16.90
2017,06,20,09,59,17.10
2017,06,20,10,00,17.30
2017,06,20,10,01,17.40
2017,06,20,10,02,17.60
2017,06,20,10,03,17.80
2017,06,20,10,04,17.90
2017,06,20,10,05,18.00
2017,06,20,10,06,18.10
2017,06,20,10,07,18.10
2017,06,20,10,08,18.00
2017,06,20,10,09,17.90
2017,06,20,10,10,17.80
2017,06,20,10,11,17.60
2017,06,20,10,12,17.50
2017,06,20,10,13,17.40
2017,06,20,10,14,17.40
2017,06,20,10,15,17.40
2017,06,20,10,16,17.40
2017,06,20,10,17,17.40
2017,06,20,10,18,17.50
2017,06,20,10,19,17.50
2017,06,20,10,20,17.60
2017,06,20,10,21,17.70
2017,06,20,10,22,17.80
2017,06,20,10,23,17.90
2017,06,20,10,24,18.10
2017,06,20,10,25,18.20
2017,06,20,10,26,18.30
2017,06,20,10,27,18.40
2017,06,20,10,28,18.50
2017,06,20,10,29,18.60
2017,06,20,10,30,18.70
2017,06,20,10,31,18.80
2017,06,20,10,32,18.80
2017,06,20,10,33,18.70
2017,06,20,10,34,18.50
2017,06,20,10,35,18.40
2017,06,20,10,36,18.30
2017,06,20,10,37,18.20
2017,06,20,10,38,18.20
2017,06,20,10,39,18.20
2017,06,20,10,40,18.20
2017,06,20,10,41,18.20
2017,06,20,10,42,18.20
2017,06,20,10,43,18.20
2017,06,20,10,44,18.20
2017,06,20,10,45,18.10
2017,06,20,10,46,18.10
2017,06,20,10,47,18.00
2017,06,20,10,48,17.90
2017,06,20,10,49,17.80
2017,06,20,10,50,17.80
2017,06,20,10,51,17.80
2017,06,20,10,52,17.80
2017,06,20,10,53,17.80
2017,06,20,10,54,17.90
2017,06,20,10,55,17.90
2017,06,20,10,56,17.90
2017,06,20,10,57,17.90
2017,06,20,10,58,18.00
2017,06,20,10,59,18.00
2017,06,20,11,00,18.00
2017,06,20,11,01,17.90
2017,06,20,11,02,17.90
2017,06,20,11,03,17.90
2017,06,20,11,04,17.90
2017,06,20,11,05,17.80
2017,06,20,11,06,17.80
2017,06,20,11,07,17.70
2017,06,20,11,08,17.60
2017,06,20,11,09,17.50
2017,06,20,11,10,17.50
2017,06,20,11,11,17.40
2017,06,20,11,12,17.40
2017,06,20,11,13,17.30
2017,06,20,11,14,17.30
2017,06,20,11,15,17.30
2017,06,20,11,16,17.20
2017,06,20,11,17,17.10
2017,06,20,11,18,17.10
2017,06,20,11,19,17.10
2017,06,20,11,20,17.10
2017,06,20,11,21,17.10
2017,06,20,11,22,17.00
2017,06,20,11,23,16.90
2017,06,20,11,24,16.90
2017,06,20,11,26,16.80
2017,06,20,11,27,16.80
2017,06,20,11,28,16.70
2017,06,20,11,29,16.70
2017,06,20,11,30,16.70
2017,06,20,11,31,16.60
2017,06,20,11,32,16.50
2017,06,20,11,33,16.50
2017,06,20,11,34,16.40
2017,06,20,11,35,16.40
2017,06,20,11,36,16.40
2017,06,20,11,37,16.40
2017,06,20,11,38,16.30
2017,06,20,11,39,16.30
2017,06,20,11,40,16.20
2017,06,20,11,41,16.20
2017,06,20,11,42,16.30
2017,06,20,11,43,16.40
2017,06,20,11,44,16.50
2017,06,20,11,45,16.70
2017,06,20,11,46,16.80
2017,06,20,11,48,17.20
2017,06,20,11,49,17.30
2017,06,20,11,50,17.30
2017,06,20,11,51,17.30
2017,06,20,11,52,17.30
2017,06,20,11,53,17.30
2017,06,20,11,54,17.30
2017,06,20,11,55,17.30
2017,06,20,11,56,17.30
2017,06,20,11,57,17.30
2017,06,20,11,58,17.20
2017,06,20,11,59,17.20
2017,06,20,12,00,17.10
2017,06,20,12,01,17.00
2017,06,20,12,02,16.90
2017,06,20,12,03,16.80
2017,06,20,12,04,16.80
2017,06,20,12,05,16.70
2017,06,20,12,06,16.70
2017,06,20,12,07,16.70
2017,06,20,12,08,16.60
2017,06,20,12,09,16.60
2017,06,20,12,10,16.50
2017,06,20,12,11,16.50
2017,06,20,12,12,16.40
2017,06,20,12,13,16.40
2017,06,20,12,14,16.40
2017,06,20,12,15,16.40
2017,06,20,12,16,16.40
2017,06,20,12,17,16.40
2017,06,20,12,18,16.40
2017,06,20,12,19,16.40
2017,06,20,12,20,16.40
2017,06,20,12,21,16.40
2017,06,20,12,22,16.50
2017,06,20,12,23,16.60
2017,06,20,12,24,16.70
2017,06,20,12,25,16.80
2017,06,20,12,26,17.00
2017,06,20,12,27,17.10
2017,06,20,12,28,17.20
2017,06,20,12,29,17.30
2017,06,20,12,30,17.30
2017,06,20,12,31,17.30
2017,06,20,12,32,17.40
2017,06,20,12,33,17.40
2017,06,20,12,34,17.50
2017,06,20,12,35,17.70
2017,06,20,12,36,17.90
2017,06,20,12,37,18.00
2017,06,20,12,38,18.10
2017,06,20,12,39,18.20
2017,06,20,12,40,18.30
2017,06,20,12,41,18.40
2017,06,20,12,42,18.40
2017,06,20,12,43,18.40
2017,06,20,12,44,18.40
2017,06,20,12,45,18.30
2017,06,20,12,46,18.30
2017,06,20,12,47,18.20
2017,06,20,12,48,18.10
2017,06,20,12,49,18.10
2017,06,20,12,50,18.10
2017,06,20,12,51,18.10
2017,06,20,12,52,18.10
2017,06,20,12,53,17.90
2017,06,20,12,54,17.80
2017,06,20,12,55,17.70
2017,06,20,12,56,17.60
2017,06,20,12,57,17.50
2017,06,20,12,58,17.50
2017,06,20,12,59,17.50
2017,06,20,13,00,17.40
2017,06,20,13,01,17.40
2017,06,20,13,02,17.40
2017,06,20,13,03,17.30
2017,06,20,13,04,17.30
2017,06,20,13,05,17.30
2017,06,20,13,06,17.30
2017,06,20,13,07,17.40
2017,06,20,13,08,17.30
2017,06,20,13,09,17.30
2017,06,20,13,10,17.30
2017,06,20,13,11,17.20
2017,06,20,13,12,17.20
2017,06,20,13,13,17.30
2017,06,20,13,14,17.30
2017,06,20,13,15,17.30
2017,06,20,13,16,17.30
2017,06,20,13,17,17.30
2017,06,20,13,18,17.30
2017,06,20,13,19,17.20
2017,06,20,13,20,17.20
2017,06,20,13,21,17.10
2017,06,20,13,22,17.10
2017,06,20,13,23,17.00
2017,06,20,13,24,17.10
2017,06,20,13,25,17.00
2017,06,20,13,26,17.10
2017,06,20,13,27,17.10
2017,06,20,13,28,17.10
2017,06,20,13,29,17.10
2017,06,20,13,30,17.10
2017,06,20,13,31,17.10
2017,06,20,13,32,17.10
2017,06,20,13,33,17.30
2017,06,20,13,34,17.40
2017,06,20,13,35,17.40
2017,06,20,13,36,17.40
2017,06,20,13,37,17.40
2017,06,20,13,38,17.40
2017,06,20,13,39,17.40
2017,06,20,13,40,17.30
2017,06,20,13,41,17.30
2017,06,20,13,42,17.30
2017,06,20,13,43,17.30
2017,06,20,13,44,17.30
2017,06,20,13,45,17.30
2017,06,20,13,46,17.30
2017,06,20,13,47,17.30
2017,06,20,13,48,17.30
2017,06,20,13,49,17.30
2017,06,20,13,50,17.40
2017,06,20,13,51,17.40
2017,06,20,13,52,17.50
2017,06,20,13,53,17.60
2017,06,20,13,54,17.60
2017,06,20,13,55,17.60
2017,06,20,13,56,17.60
2017,06,20,13,57,17.60
2017,06,20,13,58,17.60
2017,06,20,13,59,17.60
2017,06,20,14,00,17.60
2017,06,20,14,01,17.50
2017,06,20,14,02,17.50
2017,06,20,14,03,17.40
2017,06,20,14,04,17.30
2017,06,20,14,05,17.20
2017,06,20,14,06,17.10
2017,06,20,14,07,17.00
2017,06,20,14,08,16.90
2017,06,20,14,09,16.90
2017,06,20,14,10,16.80
2017,06,20,14,11,16.80
2017,06,20,14,12,16.80
2017,06,20,14,13,16.90
2017,06,20,14,14,16.90
2017,06,20,14,15,17.00
2017,06,20,14,16,17.00
2017,06,20,14,17,17.00
2017,06,20,14,18,16.90
2017,06,20,14,19,16.80
2017,06,20,14,20,16.70
2017,06,20,14,21,16.70
2017,06,20,14,22,16.70
2017,06,20,14,23,16.70
2017,06,20,14,24,16.60
2017,06,20,14,25,16.50
2017,06,20,14,26,16.50
2017,06,20,14,27,16.50
2017,06,20,14,28,16.50
2017,06,20,14,29,16.30
2017,06,20,14,30,16.30
2017,06,20,14,31,16.30
2017,06,20,14,32,16.40
2017,06,20,14,33,16.40
2017,06,20,14,34,16.40
2017,06,20,14,35,16.40
2017,06,20,14,36,16.40
2017,06,20,14,37,16.30
2017,06,20,14,38,16.30
2017,06,20,14,39,16.30
2017,06,20,14,40,16.30
2017,06,20,14,41,16.40
2017,06,20,14,42,16.50
2017,06,20,14,43,16.50
2017,06,20,14,44,16.60
2017,06,20,14,45,16.70
2017,06,20,14,46,16.60
2017,06,20,14,47,16.60
2017,06,20,14,48,16.50
2017,06,20,14,49,16.50
2017,06,20,14,50,16.40
2017,06,20,14,51,16.40
2017,06,20,14,52,16.30
2017,06,20,14,53,16.30
2017,06,20,14,54,16.30
2017,06,20,14,55,16.30
2017,06,20,14,56,16.20
2017,06,20,14,57,16.20
2017,06,20,14,58,16.20
2017,06,20,14,59,16.30
2017,06,20,15,00,16.30
2017,06,20,15,01,16.30
2017,06,20,15,02,16.30
2017,06,20,15,03,16.30
2017,06,20,15,04,16.40
2017,06,20,15,05,16.50
2017,06,20,15,06,16.70
2017,06,20,15,07,16.80
2017,06,20,15,08,16.70
2017,06,20,15,09,16.70
2017,06,20,15,10,16.80
2017,06,20,15,11,16.80
2017,06,20,15,12,16.80
2017,06,20,15,13,16.70
2017,06,20,15,14,16.60
2017,06,20,15,15,16.60
2017,06,20,15,16,16.50
2017,06,20,15,17,16.40
2017,06,20,15,18,16.30
2017,06,20,15,19,16.30
2017,06,20,15,20,16.30
2017,06,20,15,21,16.30
2017,06,20,15,22,16.30
2017,06,20,15,23,16.40
2017,06,20,15,24,16.40
2017,06,20,15,25,16.30
2017,06,20,15,26,16.30
2017,06,20,15,27,16.30
2017,06,20,15,28,16.30
2017,06,20,15,29,16.30
2017,06,20,15,30,16.30
2017,06,20,15,31,16.40
2017,06,20,15,32,16.40
2017,06,20,15,33,16.30
2017,06,20,15,34,16.30
2017,06,20,15,35,16.30
2017,06,20,15,36,16.40
2017,06,20,15,37,16.40
2017,06,20,15,38,16.40
2017,06,20,15,39,16.40
2017,06,20,15,40,16.30
2017,06,20,15,41,16.30
2017,06,20,15,42,16.30
2017,06,20,15,43,16.30
2017,06,20,15,44,16.30
2017,06,20,15,45,16.30
2017,06,20,15,46,16.20
2017,06,20,15,47,16.20
2017,06,20,15,48,16.20
2017,06,20,15,49,16.20
2017,06,20,15,50,16.20
2017,06,20,15,51,16.20
2017,06,20,15,52,16.20
2017,06,20,15,53,16.20
2017,06,20,15,54,16.10
2017,06,20,15,55,16.20
2017,06,20,15,56,16.20
2017,06,20,15,57,16.20
2017,06,20,15,58,16.30
2017,06,20,15,59,16.30
2017,06,20,16,00,16.30
2017,06,20,16,01,16.30
2017,06,20,16,02,16.40
2017,06,20,16,03,16.50
2017,06,20,16,04,16.60
2017,06,20,16,05,16.60
2017,06,20,16,06,16.70
2017,06,20,16,07,16.70
2017,06,20,16,08,16.70
2017,06,20,16,09,16.60
2017,06,20,16,10,16.60
2017,06,20,16,11,16.60
2017,06,20,16,12,16.60
2017,06,20,16,13,16.60
2017,06,20,16,14,16.50
2017,06,20,16,15,16.50
2017,06,20,16,16,16.40
2017,06,20,16,17,16.40
2017,06,20,16,18,16.40
2017,06,20,16,19,16.50
2017,06,20,16,20,16.50
2017,06,20,16,21,16.50
2017,06,20,16,22,16.50
2017,06,20,16,23,16.60
2017,06,20,16,24,16.60
2017,06,20,16,25,16.50
2017,06,20,16,26,16.40
2017,06,20,16,27,16.40
2017,06,20,16,28,16.50
2017,06,20,16,29,16.60
2017,06,20,16,30,16.60
2017,06,20,16,31,16.50
2017,06,20,16,32,16.50
2017,06,20,16,33,16.50
2017,06,20,16,34,16.50
2017,06,20,16,35,16.60
2017,06,20,16,36,16.60
2017,06,20,16,37,16.60
2017,06,20,16,38,16.50
2017,06,20,16,39,16.50
2017,06,20,16,40,16.50
2017,06,20,16,41,16.50
2017,06,20,16,42,16.50
2017,06,20,16,43,16.50
2017,06,20,16,44,16.40
2017,06,20,16,45,16.50
2017,06,20,16,46,16.50
2017,06,20,16,47,16.50
2017,06,20,16,48,16.50
2017,06,20,16,49,16.50
2017,06,20,16,50,16.50
2017,06,20,16,51,16.40
2017,06,20,16,52,16.40
2017,06,20,16,53,16.30
2017,06,20,16,54,16.40
2017,06,20,16,55,16.40
2017,06,20,16,56,16.40
2017,06,20,16,57,16.40
2017,06,20,16,58,16.40
2017,06,20,16,59,16.40
2017,06,20,17,00,16.30
2017,06,20,17,01,16.30
2017,06,20,17,02,16.30
2017,06,20,17,03,16.30
2017,06,20,17,04,16.20
2017,06,20,17,05,16.20
2017,06,20,17,06,16.20
2017,06,20,17,07,16.30
2017,06,20,17,08,16.30
2017,06,20,17,09,16.30
2017,06,20,17,10,16.30
2017,06,20,17,11,16.40
2017,06,20,17,12,16.40
2017,06,20,17,13,16.40
2017,06,20,17,14,16.40
2017,06,20,17,15,16.40
2017,06,20,17,16,16.40
2017,06,20,17,17,16.40
2017,06,20,17,18,16.40
2017,06,20,17,19,16.30
2017,06,20,17,20,16.30
2017,06,20,17,21,16.30